Location: Chin
(49.7667°N, 112.4500°W)
Time: 10:40:39
(UTC+00:00)

Envisat - Pass Details

Date: 05 December 2021
Orbit: 764 x 766 km, 98.2° (Epoch: 24 January)

Event Time Altitude Azimuth Distance (km) Brightness Sun altitude
Rises 11:34:42 0° 23° (NNE) 3,246 6.6 -33.9°
Reaches altitude 10° 11:37:26 10° 37° (NE) 2,314 5.9 -33.4°
Maximum altitude 11:41:36 25° 92° (E) 1,512 5.1 -32.8°
Drops below altitude 10° 11:45:45 10° 147° (SSE) 2,299 5.8 -32.1°
Sets 11:48:26 0° 161° (SSE) 3,219 6.4 -31.7°
